Location: Ferchesar
(52.6477°N, 12.4298°E)
Time: 19:52:08
(UTC+02:00)

A-11 Canister half - Pass Details

Date: 05 March 2021
Orbit: 1525 x 1683 km, 47.3° (Epoch: 11 April)

Event Time Altitude Azimuth Distance (km) Brightness Sun altitude
Exits shadow 03:16:42 25° 167° (SSE) 2,771 10.1 -31.3°
Maximum altitude 03:19:31 29° 140° (SE) 2,567 10.1 -30.9°
Drops below altitude 10° 03:27:14 10° 85° (E) 3,740 11.7 -30.0°
Sets 03:30:44 0° 75° (ENE) 4,709 12.6 -29.5°
